SL-14 DEB, 45323

Orbit data source: Space-Track

SL-14 DEB, 45323 is space debris in LEO originally from a launch on Thu, 15 Aug 1991 UTC launched from the Plesetsk Missile And Space Complex (PKMTR). Debris objects in space refer to the collection of defunct objects orbiting the Earth. Examples of debris include non-operational satellites, rocket bodies, and fragments generated from explosions, collisions, or faulty payload assembly.

Loading next visibility...
Identifier
45323, 1991-056BM
Orbit
LEO
Last TLE update
7 hours ago
Origin
Manufacturer
Unknown
Mission
Spacecraft
Bus & Motor
Unknown
Mass
Unknown
Launch date (UTC)
1991-08-15 (34 years ago)
Launch vehicle
Unknown
Launch site
Plesetsk Missile And Space Complex (PKMTR)
Object type
Payload
Rocket body
Debris
Shape & HBR
Unknown
Radar Cross Section
Small (<0.1 m²)

Expand to show TLE details & history

TLE from 7 hours ago
0 SL-14 DEB
1 45323U 91056BM  25190.01314169  .00000503  00000-0  12109-2 0  9993
2 45323  82.5307  11.9709 0003681 207.7624 152.3305 13.20500503258099
Epoch: 2025-07-09T00:18Z
TLE epoch observation values (Epoch: 2025-07-09T00:18:55.442Z)
Latitude
0.00007°
Longitude
80.04003°
Altitude
1,188.086 km
Speed
7.258 km/s
True Right ascension
00h 47m 53s
True Declination
0° 00' 00"
Sunlit
Object was in daylight at epoch
Visualization orbit readout
Latitude
40.60795°
Longitude
86.23884°
Altitude
1,191.265 km
Speed
7.261 km/s
Apparent Right ascension
04h 12m 41s
Apparent Declination
6° 59' 44"
Sunlit
Object is in daylight
Visualization observer readout
Local Sidereal Time
19:57:17
Azimuth
61.469° ENE
Elevation
-20.235°
Doppler factor
1
Orbital elements
Apogee altitude
1,182.832 km
Perigee altitude
1,177.267 km
Semi-major axis
7,558.186 km
Eccentricity
0.00037
Inclination
82.5307°
RAAN
11.9709°
Arg. of periapsis
207.7624°
True anomaly
Unknown
Mean anomaly
152.3305°
Eccentric anomaly
Unknown
Mean motion
3.30306 °/min
Orbital period
108.99 mins
BSTAR
0.0012109
Loading maneuver chart data...
Loading SW <> Apogee altitude chart data...
Loading historical data...
Loading historical data...
Loading historical data...
Loading historical data...
Loading historical data...
Loading historical data...
Loading historical data...

SL-14 DEB Visibility forecast

Observer location: undefined°, undefined°

Span
Click to sort rows by Start time (UTC) header in descending order
Start Az.
Max El. time (UTC)
Max El. Az.
Max El.
End time (UTC)
End Az.
8 mins2025-07-09 11:21:44.284Z118.285° SE2025-07-09 11:25:44.284Z82.528° E17.748°2025-07-09 11:29:44.284Z45.753° ENE
12 mins2025-07-09 13:09:44.284Z196.418° SSW2025-07-09 13:14:44.284Z262.016° W43.703°2025-07-09 13:21:44.284Z3.485° NNE
10 mins2025-07-09 22:44:44.284Z21.762° NNE2025-07-09 22:49:44.284Z73.644° E24.041°2025-07-09 22:54:44.284Z121.902° SE
11 mins2025-07-10 00:34:44.284Z338.02° N2025-07-10 00:39:44.284Z269.358° W39.192°2025-07-10 00:45:44.284Z196.221° SSW
|